#timestamp,LO_Frequency,Hit,StdDev 
1577419215.9,286046997.2,N
1577419235.7,286046999.0,N
1577419255.5,286046996.5,N
1577419275.4,286046996.7,N
1577419295.2,286046997.3,N
1577419315.1,286046995.0,N
1577419316.0,286046995.0,N
1577419335.8,286046997.4,N
1577419355.6,286046998.0,N
1577419375.5,286046997.4,N
1577419395.3,286046998.1,N
1577419415.2,286046996.7,N
1577419435.9,286046997.1,N
1577419455.7,286046995.5,N
1577419475.6,286046996.1,N
1577419495.4,286046995.1,N
1577419515.2,286046994.9,N
1577419535.1,286046995.3,N
1577419536.0,286046995.3,N
1577419555.8,286046997.5,N
1577419575.7,286046997.3,N
1577419595.5,286046995.8,N
1577419615.3,286046995.3,N
1577419635.2,286046993.3,Y
1577419655.0,286046998.1,P
1577419655.9,286046998.1,P
1577419675.8,286046998.4,N
1577419695.6,286047001.1,N
1577419715.4,286047000.6,N
1577419735.3,286046999.7,N
1577419755.1,286047000.3,N
1577419775.8,286047001.2,N
1577419795.7,286046999.3,N
1577419815.5,286046996.7,N
1577419835.4,286046998.5,N
1577419855.2,286046999.4,N
1577419875.0,286046998.9,N
1577419875.9,286046998.9,N
1577419895.8,286047000.7,N
1577419915.6,286047002.4,N
1577419935.4,286047001.8,N
1577419955.3,286047006.0,Y
1577419975.1,286047004.9,P
1577419995.9,286047004.1,N
1577420015.7,286047001.4,N
1577420035.5,286047004.0,N
1577420055.4,286047006.9,Y
1577420075.2,286047000.1,P
1577420095.1,286046998.7,N
1577420096.0,286046998.7,N
1577420115.8,286047000.3,N
1577420135.6,286047003.7,N
1577420155.5,286047002.7,N
1577420175.3,286047002.4,N
1577420195.2,286047001.1,N
1577420215.9,286046998.2,N
1577420235.7,286047000.9,N
1577420255.6,286047000.5,N
1577420275.4,286046999.1,N
1577420295.3,286046996.6,N
1577420315.1,286046998.4,N
1577420316.0,286046998.4,N
1577420335.8,286047002.4,N
1577420355.7,286047004.3,N
1577420375.5,286047002.4,N
1577420395.3,286047000.6,N
1577420415.2,286046999.6,N
1577420435.0,286046998.7,N
1577420435.9,286046998.7,N
1577420455.8,286046998.3,N
1577420475.6,286046999.0,N
1577420495.4,286046999.4,N
1577420515.3,286046996.5,N
1577420535.1,286046995.4,N
1577420555.8,286046997.9,N
1577420575.7,286046993.5,Y
1577420595.5,286046996.4,P
1577420615.4,286046993.7,P
1577420635.2,286046994.4,N
1577420655.0,286046994.7,N
1577420655.9,286046994.7,N
1577420675.8,286046993.7,Y
1577420695.6,286046998.2,P
1577420715.5,286046998.7,N
1577420735.3,286046997.0,N
1577420755.1,286046997.7,N
1577420775.9,286046999.4,N
1577420795.7,286046998.4,N
1577420815.5,286046998.4,N
1577420835.4,286046998.7,N
1577420855.2,286047000.0,N
1577420875.1,286047000.3,N
1577420876.0,286047000.3,N
1577420895.8,286046998.1,N
1577420915.6,286047001.2,N
1577420935.5,286046999.4,N
1577420955.3,286046996.6,N
1577420975.1,286047002.8,N
1577420995.9,286047001.2,N
1577421015.7,286047000.6,N
1577421035.6,286046998.6,N
1577421055.4,286046996.8,N
1577421075.2,286046999.6,N
1577421095.1,286046999.2,N
1577421096.0,286046999.2,N
1577421115.8,286046996.9,N
1577421135.6,286046997.2,N
1577421155.5,286046997.1,N
1577421175.3,286046997.1,N
1577421195.2,286046999.6,N
1577421215.9,286046998.3,N
1577421235.7,286046999.5,N
1577421255.6,286046998.4,N
1577421275.4,286046999.3,N
1577421295.2,286046996.8,N
1577421315.1,286046999.4,N
1577421316.0,286046999.4,N
1577421335.8,286046996.8,N
1577421355.7,286046995.4,Y
1577421375.5,286046996.8,P
1577421395.3,286046995.4,P
1577421415.2,286046994.9,P
1577421435.0,286046999.1,N
1577421435.9,286046999.1,N
1577421455.8,286046999.2,N
1577421475.6,286046999.3,N
1577421495.4,286046998.4,N
1577421515.3,286046999.2,N
1577421535.1,286046996.9,N
1577421555.8,286046996.7,N
1577421575.7,286046995.1,Y
1577421595.5,286046998.6,P
1577421615.4,286046998.2,P
1577421635.2,286046996.5,P
1577421655.0,286046997.2,Y
1577421655.9,286046997.2,P
1577421675.8,286047002.4,P
1577421695.6,286046999.8,N
1577421715.5,286047002.8,N
1577421735.3,286047002.4,N
1577421755.1,286047002.3,N
1577421775.9,286047003.5,N
1577421795.7,286047001.4,N
1577421815.5,286047001.7,N
1577421835.4,286047002.4,N
1577421855.2,286047001.5,N
1577421875.1,286047002.2,N
1577421876.0,286047002.2,N
1577421895.8,286047003.1,N
1577421915.6,286047003.8,N
1577421935.5,286047001.8,N
1577421955.3,286047003.4,N
1577421975.1,286047004.6,N
1577421995.9,286047007.3,Y
1577422015.7,286047003.9,P
1577422035.6,286047002.0,N
1577422055.4,286047000.3,N
1577422075.2,286046999.8,N
1577422095.1,286047000.0,N
1577422096.0,286047000.0,N
1577422115.8,286047002.2,N
1577422135.7,286047004.3,Y
1577422155.5,286047000.5,P
1577422175.3,286047001.1,N
1577422195.2,286046998.4,P
1577422215.0,286046997.5,N
1577422215.9,286046997.5,N
1577422235.7,286046997.9,N
1577422255.6,286046997.4,N
1577422275.4,286046997.8,N
1577422295.3,286046996.5,N
1577422315.1,286046999.4,N
1577422316.0,286046999.4,N
1577422335.8,286046997.0,N
1577422355.7,286046999.4,N
1577422375.5,286046997.2,N
1577422395.3,286047001.2,N
1577422415.2,286046996.8,N
1577422435.0,286046995.2,Y
1577422435.9,286046995.2,P
1577422455.8,286047001.2,N
1577422475.6,286046998.2,N
1577422495.4,286046998.8,N
1577422515.3,286046998.5,N
1577422535.1,286046996.9,N
1577422555.9,286046994.9,Y
1577422575.7,286046998.4,P
1577422595.5,286046998.2,P
1577422615.4,286046998.3,P
1577422635.2,286046998.1,Y
1577422655.0,286046999.7,P
1577422656.0,286046999.7,N
1577422675.8,286047001.3,N
1577422695.6,286047000.0,N
1577422715.5,286047004.4,Y
1577422735.3,286047001.7,P
1577422755.1,286047004.3,P
1577422775.9,286047003.4,N
1577422795.7,286047001.4,N
